Location: Sudbury
(46.5221°N, 80.9530°W)
Time: 06:02:13
(UTC-05:00)

ISS - Pass Details

Date: 29 September 2023
Orbit: 416 x 417 km, 51.6° (Epoch: 01 December)

Event Time Altitude Azimuth Distance (km) Brightness Sun altitude
Rises 20:49:58 0° 294° (WNW) 2,368 1.7 -18.2°
Reaches altitude 10° 20:52:07 10° 289° (WNW) 1,497 0.3 -18.6°
Maximum altitude 20:55:21 46° 214° (SW) 567 -3.1 -19.1°
Enters shadow 20:55:51 42° 185° (S) 607 -3.1 -19.2°
